TAN03 EGNX-EGNS

Flight info

Callsign TAN03
Flight time 0h 56m
Altitude 10000
Route TNT UQ4 VABKA DCT WAL L10 KELLY
Aircraft C414/L-SBDFGRY/S

Departure

Time 2026-04-16 14:05
Airport East Midlands Airport (EGNX)

Arrival

Time 2026-04-16 15:01
Airport Isle of Man Airport (EGNS)
Time Latitude Longitude Altitude Speed Heading
2026-04-16 13:51 52.82647 -1.33972 295 ft 0 kts 59°
2026-04-16 13:59 52.82648 -1.33970 295 ft 3 kts 58°
2026-04-16 14:00 52.82691 -1.33882 297 ft 10 kts 48°
2026-04-16 14:00 52.82734 -1.33781 295 ft 10 kts 59°
2026-04-16 14:00 52.82778 -1.33706 295 ft 10 kts
2026-04-16 14:00 52.82880 -1.33722 295 ft 18 kts
2026-04-16 14:01 52.82920 -1.33554 298 ft 24 kts 90°
2026-04-16 14:01 52.82922 -1.33269 297 ft 24 kts 88°
2026-04-16 14:01 52.82929 -1.33001 296 ft 22 kts 88°
2026-04-16 14:01 52.82932 -1.32767 296 ft 20 kts 88°
2026-04-16 14:02 52.82937 -1.32519 295 ft 21 kts 88°
2026-04-16 14:02 52.82940 -1.32229 295 ft 27 kts 90°
2026-04-16 14:02 52.82946 -1.31938 295 ft 24 kts 87°
2026-04-16 14:02 52.82952 -1.31683 295 ft 21 kts 89°
2026-04-16 14:03 52.82956 -1.31461 295 ft 18 kts 88°
2026-04-16 14:03 52.82994 -1.31322 296 ft 8 kts 11°
2026-04-16 14:03 52.83047 -1.31318 298 ft 15 kts 359°
2026-04-16 14:03 52.83125 -1.31388 302 ft 11 kts 274°
2026-04-16 14:04 52.83120 -1.31686 304 ft 49 kts 268°
2026-04-16 14:04 52.83104 -1.32492 328 ft 84 kts 266°
2026-04-16 14:04 52.83102 -1.33505 485 ft 93 kts 267°
2026-04-16 14:04 52.83105 -1.34677 680 ft 110 kts 269°
2026-04-16 14:05 52.83165 -1.36005 979 ft 121 kts 274°
2026-04-16 14:05 52.83289 -1.37445 1273 ft 131 kts 273°
2026-04-16 14:05 52.83428 -1.38961 1570 ft 135 kts 274°
2026-04-16 14:05 52.83914 -1.40313 1866 ft 149 kts 316°
2026-04-16 14:06 52.84814 -1.41203 2160 ft 150 kts 318°
2026-04-16 14:06 52.85626 -1.42269 2451 ft 150 kts 313°
2026-04-16 14:06 52.86452 -1.43343 2737 ft 152 kts 315°
2026-04-16 14:06 52.87294 -1.44399 3018 ft 152 kts 315°
2026-04-16 14:07 52.88141 -1.45453 3302 ft 153 kts 316°
2026-04-16 14:07 52.88992 -1.46510 3582 ft 153 kts 315°
2026-04-16 14:07 52.89858 -1.47586 3865 ft 154 kts 316°
2026-04-16 14:07 52.90712 -1.48647 4142 ft 152 kts 315°
2026-04-16 14:08 52.91550 -1.49690 4421 ft 149 kts 315°
2026-04-16 14:08 52.92371 -1.50712 4704 ft 147 kts 315°
2026-04-16 14:08 52.93182 -1.51722 4984 ft 145 kts 315°
2026-04-16 14:08 52.93982 -1.52721 5260 ft 143 kts 316°
2026-04-16 14:09 52.94774 -1.53710 5539 ft 142 kts 315°
2026-04-16 14:09 52.95558 -1.54686 5810 ft 141 kts 315°
2026-04-16 14:09 52.96333 -1.55653 6096 ft 138 kts 315°
2026-04-16 14:09 52.97090 -1.56599 6383 ft 134 kts 315°
2026-04-16 14:10 52.97826 -1.57519 6642 ft 131 kts 315°
2026-04-16 14:10 52.98545 -1.58418 6905 ft 128 kts 314°
2026-04-16 14:10 52.99248 -1.59297 7167 ft 125 kts 314°
2026-04-16 14:10 52.99929 -1.60150 7445 ft 120 kts 312°
2026-04-16 14:11 53.00583 -1.60969 7700 ft 115 kts 312°
2026-04-16 14:11 53.01210 -1.61755 7958 ft 110 kts 311°
2026-04-16 14:11 53.01804 -1.62498 8211 ft 103 kts 310°
2026-04-16 14:11 53.02349 -1.63187 8459 ft 94 kts 309°
2026-04-16 14:12 53.02840 -1.63808 8683 ft 83 kts 306°
2026-04-16 14:12 53.03289 -1.64382 8739 ft 83 kts 306°
2026-04-16 14:12 53.03783 -1.64993 8760 ft 90 kts 309°
2026-04-16 14:12 53.04294 -1.65633 8831 ft 96 kts 310°
2026-04-16 14:13 53.04852 -1.66323 8878 ft 103 kts 310°
2026-04-16 14:13 53.05385 -1.67096 8981 ft 96 kts 287°
2026-04-16 14:13 53.05563 -1.68105 9088 ft 92 kts 278°
2026-04-16 14:13 53.05755 -1.69135 9183 ft 94 kts 276°
2026-04-16 14:14 53.05938 -1.70192 9273 ft 96 kts 277°
2026-04-16 14:14 53.06124 -1.71272 9361 ft 98 kts 277°
2026-04-16 14:14 53.06313 -1.72372 9450 ft 98 kts 277°
2026-04-16 14:14 53.06498 -1.73455 9531 ft 97 kts 277°
2026-04-16 14:15 53.06681 -1.74526 9610 ft 95 kts 277°
2026-04-16 14:15 53.06861 -1.75587 9657 ft 95 kts 277°
2026-04-16 14:15 53.07040 -1.76637 9700 ft 93 kts 276°
2026-04-16 14:15 53.07215 -1.77652 9736 ft 90 kts 276°
2026-04-16 14:16 53.07385 -1.78660 9752 ft 91 kts 276°
2026-04-16 14:16 53.07555 -1.79654 9769 ft 86 kts 276°
2026-04-16 14:16 53.07713 -1.80587 9772 ft 82 kts 275°
2026-04-16 14:16 53.07864 -1.81475 9759 ft 78 kts 276°
2026-04-16 14:17 53.08011 -1.82357 9663 ft 84 kts 276°
2026-04-16 14:17 53.08183 -1.83334 9559 ft 91 kts 277°
2026-04-16 14:17 53.08361 -1.84387 9453 ft 97 kts 277°
2026-04-16 14:17 53.08551 -1.85499 9363 ft 103 kts 278°
2026-04-16 14:18 53.08751 -1.86689 9268 ft 110 kts 278°
2026-04-16 14:18 53.08964 -1.87951 9176 ft 117 kts 278°
2026-04-16 14:18 53.09189 -1.89283 9067 ft 123 kts 279°
2026-04-16 14:18 53.09428 -1.90695 8965 ft 131 kts 279°
2026-04-16 14:19 53.09681 -1.92197 8860 ft 139 kts 279°
2026-04-16 14:19 53.09950 -1.93788 8750 ft 146 kts 279°
2026-04-16 14:19 53.10232 -1.95456 8636 ft 153 kts 280°
2026-04-16 14:19 53.10524 -1.97182 8528 ft 158 kts 280°
2026-04-16 14:20 53.10826 -1.98974 8412 ft 163 kts 280°
2026-04-16 14:20 53.11137 -2.00821 8294 ft 168 kts 280°
2026-04-16 14:20 53.11456 -2.02715 8177 ft 172 kts 281°
2026-04-16 14:20 53.11781 -2.04657 8063 ft 176 kts 281°
2026-04-16 14:21 53.12115 -2.06636 8004 ft 177 kts 281°
2026-04-16 14:21 53.12445 -2.08602 8004 ft 176 kts 281°
2026-04-16 14:21 53.12772 -2.10561 8002 ft 176 kts 281°
2026-04-16 14:21 53.13100 -2.12521 7998 ft 176 kts 280°
2026-04-16 14:22 53.13428 -2.14483 7998 ft 177 kts 280°
2026-04-16 14:22 53.13759 -2.16475 7997 ft 179 kts 281°
2026-04-16 14:22 53.14094 -2.18490 8001 ft 181 kts 281°
2026-04-16 14:22 53.14492 -2.20496 7995 ft 185 kts 290°
2026-04-16 14:23 53.15088 -2.22444 8002 ft 187 kts 291°
2026-04-16 14:23 53.15675 -2.24383 8001 ft 188 kts 291°
2026-04-16 14:23 53.16255 -2.26333 7998 ft 188 kts 291°
2026-04-16 14:23 53.16838 -2.28290 8000 ft 188 kts 291°
2026-04-16 14:24 53.17421 -2.30245 7996 ft 188 kts 291°
2026-04-16 14:24 53.18005 -2.32205 8000 ft 189 kts 291°
2026-04-16 14:24 53.18588 -2.34161 7997 ft 189 kts 291°
2026-04-16 14:24 53.19173 -2.36126 7999 ft 189 kts 291°
2026-04-16 14:25 53.19756 -2.38090 7999 ft 189 kts 291°
2026-04-16 14:25 53.20339 -2.40052 7995 ft 189 kts 291°
2026-04-16 14:25 53.20921 -2.42012 7995 ft 189 kts 291°
2026-04-16 14:25 53.21502 -2.43976 8000 ft 189 kts 291°
2026-04-16 14:26 53.22086 -2.45944 7997 ft 190 kts 291°
2026-04-16 14:26 53.22672 -2.47924 8003 ft 191 kts 291°
2026-04-16 14:26 53.23263 -2.49925 7994 ft 192 kts 291°
2026-04-16 14:26 53.23852 -2.51913 7992 ft 190 kts 291°
2026-04-16 14:27 53.24434 -2.53883 7994 ft 189 kts 291°
2026-04-16 14:27 53.25016 -2.55856 7998 ft 189 kts 290°
2026-04-16 14:27 53.25594 -2.57823 8000 ft 190 kts 291°
2026-04-16 14:27 53.26179 -2.59809 7997 ft 191 kts 291°
2026-04-16 14:28 53.26767 -2.61804 7996 ft 191 kts 291°
2026-04-16 14:28 53.27354 -2.63802 7995 ft 192 kts 291°
2026-04-16 14:28 53.27943 -2.65803 7998 ft 192 kts 291°
2026-04-16 14:28 53.28528 -2.67799 7997 ft 191 kts 291°
2026-04-16 14:29 53.29109 -2.69779 7993 ft 189 kts 291°
2026-04-16 14:29 53.29687 -2.71750 7993 ft 188 kts 291°
2026-04-16 14:29 53.30257 -2.73717 7995 ft 187 kts 288°
2026-04-16 14:29 53.30710 -2.75739 7992 ft 186 kts 285°
2026-04-16 14:30 53.31167 -2.77754 7988 ft 186 kts 285°
2026-04-16 14:30 53.31627 -2.79773 7988 ft 186 kts 285°
2026-04-16 14:30 53.31937 -2.81135 7992 ft 186 kts 285°
2026-04-16 14:30 53.32543 -2.83813 7992 ft 186 kts 285°
2026-04-16 14:31 53.32852 -2.85182 7992 ft 187 kts 285°
2026-04-16 14:31 53.33311 -2.87215 7992 ft 187 kts 286°
2026-04-16 14:31 53.33769 -2.89248 7995 ft 187 kts 285°
2026-04-16 14:31 53.34228 -2.91281 7994 ft 187 kts 285°
2026-04-16 14:32 53.34685 -2.93310 7994 ft 186 kts 285°
2026-04-16 14:32 53.35141 -2.95333 7993 ft 186 kts 285°
2026-04-16 14:32 53.35595 -2.97360 7996 ft 186 kts 285°
2026-04-16 14:32 53.36050 -2.99385 7993 ft 186 kts 285°
2026-04-16 14:33 53.36505 -3.01416 7996 ft 186 kts 285°
2026-04-16 14:33 53.36961 -3.03450 7995 ft 186 kts 285°
2026-04-16 14:33 53.37416 -3.05482 7992 ft 186 kts 285°
2026-04-16 14:33 53.37871 -3.07516 7995 ft 187 kts 285°
2026-04-16 14:34 53.38325 -3.09553 7993 ft 187 kts 285°
2026-04-16 14:34 53.38782 -3.11593 7994 ft 187 kts 285°
2026-04-16 14:34 53.39270 -3.13610 7992 ft 189 kts 294°
2026-04-16 14:34 53.40041 -3.15419 7993 ft 191 kts 300°
2026-04-16 14:35 53.40814 -3.17222 7994 ft 190 kts 300°
2026-04-16 14:35 53.41582 -3.19031 7994 ft 191 kts 300°
2026-04-16 14:35 53.42354 -3.20842 7994 ft 191 kts 300°
2026-04-16 14:35 53.43139 -3.22683 7995 ft 191 kts 300°
2026-04-16 14:36 53.43903 -3.24475 7994 ft 192 kts 300°
2026-04-16 14:36 53.44690 -3.26321 7994 ft 192 kts 300°
2026-04-16 14:36 53.45463 -3.28139 7994 ft 192 kts 300°
2026-04-16 14:36 53.46239 -3.29962 7994 ft 192 kts 300°
2026-04-16 14:37 53.47014 -3.31788 7989 ft 192 kts 300°
2026-04-16 14:37 53.47789 -3.33612 7989 ft 192 kts 300°
2026-04-16 14:37 53.48564 -3.35438 7989 ft 192 kts 300°
2026-04-16 14:37 53.49339 -3.37266 7988 ft 192 kts 299°
2026-04-16 14:38 53.50114 -3.39095 7988 ft 192 kts 300°
2026-04-16 14:38 53.50889 -3.40927 7987 ft 192 kts 300°
2026-04-16 14:38 53.51665 -3.42760 7986 ft 193 kts 300°
2026-04-16 14:38 53.52443 -3.44598 7986 ft 193 kts 300°
2026-04-16 14:39 53.53216 -3.46429 7991 ft 192 kts 299°
2026-04-16 14:39 53.53989 -3.48260 7990 ft 192 kts 299°
2026-04-16 14:39 53.54761 -3.50094 7990 ft 192 kts 299°
2026-04-16 14:39 53.55532 -3.51931 7989 ft 192 kts 299°
2026-04-16 14:40 53.56307 -3.53761 7985 ft 192 kts 300°
2026-04-16 14:40 53.57080 -3.55596 7984 ft 192 kts 300°
2026-04-16 14:40 53.57855 -3.57427 7983 ft 192 kts 300°
2026-04-16 14:40 53.58625 -3.59263 7982 ft 192 kts 299°
2026-04-16 14:41 53.59393 -3.61096 7981 ft 192 kts 299°
2026-04-16 14:41 53.60163 -3.62933 7986 ft 192 kts 299°
2026-04-16 14:41 53.60933 -3.64768 7993 ft 192 kts 299°
2026-04-16 14:41 53.61704 -3.66608 7993 ft 192 kts 299°
2026-04-16 14:42 53.62475 -3.68449 7993 ft 192 kts 299°
2026-04-16 14:42 53.63247 -3.70294 7993 ft 193 kts 299°
2026-04-16 14:42 53.64019 -3.72140 7993 ft 193 kts 299°
2026-04-16 14:42 53.64792 -3.73991 7985 ft 193 kts 299°
2026-04-16 14:43 53.65564 -3.75839 7983 ft 193 kts 299°
2026-04-16 14:43 53.66338 -3.77694 7984 ft 194 kts 299°
2026-04-16 14:43 53.67113 -3.79553 7984 ft 194 kts 299°
2026-04-16 14:43 53.67899 -3.81438 7990 ft 194 kts 299°
2026-04-16 14:44 53.68678 -3.83309 7988 ft 195 kts 299°
2026-04-16 14:44 53.69454 -3.85175 7989 ft 194 kts 299°
2026-04-16 14:44 53.70229 -3.87038 7987 ft 194 kts 299°
2026-04-16 14:44 53.71002 -3.88900 7987 ft 194 kts 299°
2026-04-16 14:45 53.71775 -3.90761 7985 ft 193 kts 299°
2026-04-16 14:45 53.72546 -3.92620 7985 ft 193 kts 299°
2026-04-16 14:45 53.73316 -3.94479 7985 ft 193 kts 299°
2026-04-16 14:45 53.74084 -3.96336 7982 ft 193 kts 299°
2026-04-16 14:46 53.74855 -3.98196 7983 ft 193 kts 299°
2026-04-16 14:46 53.75623 -4.00055 7933 ft 195 kts 299°
2026-04-16 14:46 53.76419 -4.01987 7686 ft 205 kts 299°
2026-04-16 14:46 53.77243 -4.03976 7413 ft 205 kts 299°
2026-04-16 14:47 53.78053 -4.05933 7136 ft 202 kts 299°
2026-04-16 14:47 53.78848 -4.07858 6890 ft 198 kts 299°
2026-04-16 14:47 53.79630 -4.09761 6639 ft 196 kts 298°
2026-04-16 14:47 53.80408 -4.11649 6377 ft 195 kts 298°
2026-04-16 14:48 53.81179 -4.13525 6114 ft 194 kts 298°
2026-04-16 14:48 53.81948 -4.15398 5857 ft 193 kts 298°
2026-04-16 14:48 53.82712 -4.17257 5602 ft 192 kts 298°
2026-04-16 14:48 53.83476 -4.19119 5345 ft 193 kts 298°
2026-04-16 14:49 53.84240 -4.20985 5085 ft 193 kts 298°
2026-04-16 14:49 53.85008 -4.22857 4825 ft 194 kts 297°
2026-04-16 14:49 53.85776 -4.24731 4565 ft 193 kts 297°
2026-04-16 14:49 53.86540 -4.26597 4306 ft 191 kts 297°
2026-04-16 14:50 53.87289 -4.28425 4047 ft 187 kts 297°
2026-04-16 14:50 53.88022 -4.30220 3785 ft 184 kts 296°
2026-04-16 14:50 53.88746 -4.31992 3526 ft 182 kts 296°
2026-04-16 14:50 53.89463 -4.33751 3271 ft 181 kts 296°
2026-04-16 14:51 53.90176 -4.35504 3017 ft 180 kts 296°
2026-04-16 14:51 53.90912 -4.37151 2996 ft 170 kts 299°
2026-04-16 14:51 53.91629 -4.38719 2994 ft 163 kts 299°
2026-04-16 14:51 53.92299 -4.40221 2912 ft 162 kts 298°
2026-04-16 14:53 53.96980 -4.51122 2492 ft 164 kts 305°
2026-04-16 14:53 53.98038 -4.51976 2488 ft 180 kts 352°
2026-04-16 14:54 53.99252 -4.51397 2493 ft 185 kts 27°
2026-04-16 14:54 54.00396 -4.50339 2387 ft 188 kts 28°
2026-04-16 14:54 54.01463 -4.49072 2257 ft 188 kts 50°
2026-04-16 14:54 54.02220 -4.47279 2133 ft 186 kts 60°
2026-04-16 14:55 54.02942 -4.45440 2008 ft 188 kts 60°
2026-04-16 14:55 54.03658 -4.43628 1997 ft 182 kts 60°
2026-04-16 14:55 54.04397 -4.41909 1988 ft 179 kts 47°
2026-04-16 14:55 54.05360 -4.40591 1983 ft 177 kts 39°
2026-04-16 14:56 54.06331 -4.39318 1985 ft 175 kts 38°
2026-04-16 14:56 54.07418 -4.38406 1985 ft 176 kts 18°
2026-04-16 14:56 54.08601 -4.37830 1985 ft 177 kts
2026-04-16 14:56 54.09826 -4.37836 1982 ft 173 kts 341°
2026-04-16 14:57 54.10774 -4.38857 1990 ft 158 kts 303°
2026-04-16 14:57 54.11319 -4.40370 1990 ft 141 kts 269°
2026-04-16 14:57 54.11151 -4.41889 1994 ft 130 kts 253°
2026-04-16 14:57 54.10864 -4.43290 1997 ft 124 kts 234°
2026-04-16 14:58 54.10600 -4.44734 2001 ft 132 kts 248°
2026-04-16 14:58 54.10164 -4.47790 2001 ft 131 kts 249°
2026-04-16 14:58 54.09967 -4.49289 1989 ft 129 kts 250°
2026-04-16 14:59 54.09775 -4.50807 1784 ft 131 kts 250°
2026-04-16 14:59 54.09602 -4.52231 1453 ft 116 kts 249°
2026-04-16 14:59 54.09442 -4.53518 1106 ft 107 kts 248°
2026-04-16 14:59 54.09284 -4.54750 813 ft 102 kts 250°
2026-04-16 15:00 54.09139 -4.55896 691 ft 99 kts 250°
2026-04-16 15:00 54.08991 -4.57063 564 ft 102 kts 251°
2026-04-16 15:00 54.08858 -4.58154 431 ft 89 kts 250°
2026-04-16 15:00 54.08732 -4.59157 320 ft 85 kts 248°
2026-04-16 15:01 54.08607 -4.60150 214 ft 86 kts 248°
2026-04-16 15:01 54.08484 -4.61124 104 ft 81 kts 249°
2026-04-16 15:01 54.08376 -4.61947 33 ft 62 kts 252°
2026-04-16 15:01 54.08308 -4.62475 35 ft 34 kts 259°
2026-04-16 15:02 54.08288 -4.62676 35 ft 10 kts 262°
2026-04-16 15:02 54.08285 -4.62773 35 ft 8 kts 283°
2026-04-16 15:02 54.08316 -4.62894 34 ft 18 kts 295°
2026-04-16 15:02 54.08387 -4.63139 33 ft 28 kts 296°
2026-04-16 15:03 54.08431 -4.63279 33 ft 13 kts 298°
2026-04-16 15:03 54.08501 -4.63339 33 ft 13 kts 25°
2026-04-16 15:03 54.08571 -4.63417 33 ft 15 kts 315°
2026-04-16 15:03 54.08563 -4.63495 33 ft 5 kts 224°
2026-04-16 15:04 54.08557 -4.63504 33 ft 0 kts 221°